AVA8414 SKCL-SKBO

Flight info

Callsign AVA8414
Flight time 0h 29m
Altitude 23000
Route ULQ1K ULQ W1 TOLIM TOLIM5E
Aircraft A319/M-SDE3FGHIRWY/LB1

Departure

Time 2026-04-25 03:37
Airport Alfonso Bonilla Aragon International Airport (SKCL)

Arrival

Time 2026-04-25 04:06
Airport El Dorado International Airport (SKBO)
Time Latitude Longitude Altitude Speed Heading
2026-04-25 03:18 3.53831 -76.38705 3162 ft 0 kts 266°
2026-04-25 03:29 3.53831 -76.38699 3162 ft 3 kts 266°
2026-04-25 03:29 3.53833 -76.38674 3162 ft 3 kts 266°
2026-04-25 03:29 3.53835 -76.38650 3163 ft 3 kts 266°
2026-04-25 03:29 3.53836 -76.38626 3162 ft 3 kts 266°
2026-04-25 03:30 3.53838 -76.38606 3164 ft 3 kts 263°
2026-04-25 03:30 3.53845 -76.38584 3162 ft 3 kts 232°
2026-04-25 03:30 3.53862 -76.38567 3163 ft 3 kts 220°
2026-04-25 03:30 3.53871 -76.38559 3163 ft 0 kts 221°
2026-04-25 03:33 3.53859 -76.38570 3164 ft 6 kts 221°
2026-04-25 03:33 3.53816 -76.38590 3162 ft 10 kts 185°
2026-04-25 03:33 3.53741 -76.38547 3163 ft 15 kts 143°
2026-04-25 03:34 3.53650 -76.38481 3162 ft 17 kts 143°
2026-04-25 03:34 3.53556 -76.38462 3163 ft 14 kts 193°
2026-04-25 03:34 3.53453 -76.38482 3162 ft 16 kts 190°
2026-04-25 03:34 3.53341 -76.38501 3163 ft 16 kts 190°
2026-04-25 03:35 3.53223 -76.38522 3162 ft 18 kts 190°
2026-04-25 03:35 3.53096 -76.38545 3162 ft 19 kts 190°
2026-04-25 03:35 3.52996 -76.38530 3162 ft 14 kts 106°
2026-04-25 03:35 3.52999 -76.38428 3161 ft 16 kts 68°
2026-04-25 03:36 3.53071 -76.38383 3161 ft 12 kts 11°
2026-04-25 03:36 3.53076 -76.38382 3160 ft 0 kts 11°
2026-04-25 03:36 3.53165 -76.38367 3162 ft 47 kts
2026-04-25 03:36 3.53748 -76.38267 3165 ft 119 kts
2026-04-25 03:37 3.54747 -76.38094 3271 ft 163 kts 10°
2026-04-25 03:37 3.55868 -76.37893 3991 ft 164 kts 10°
2026-04-25 03:37 3.56985 -76.37690 4760 ft 163 kts 10°
2026-04-25 03:37 3.58170 -76.37475 5211 ft 184 kts 10°
2026-04-25 03:38 3.59507 -76.37246 5605 ft 205 kts 10°
2026-04-25 03:38 3.60934 -76.37005 6230 ft 213 kts 10°
2026-04-25 03:38 3.62405 -76.36758 6959 ft 216 kts 10°
2026-04-25 03:38 3.63901 -76.36495 7695 ft 220 kts 13°
2026-04-25 03:39 3.65408 -76.36048 8162 ft 237 kts 18°
2026-04-25 03:39 3.67061 -76.35528 8592 ft 262 kts 18°
2026-04-25 03:39 3.68871 -76.34954 9180 ft 281 kts 18°
2026-04-25 03:39 3.70761 -76.34359 10040 ft 288 kts 18°
2026-04-25 03:40 3.72697 -76.33753 10972 ft 293 kts 18°
2026-04-25 03:40 3.74660 -76.33140 11912 ft 298 kts 17°
2026-04-25 03:40 3.76652 -76.32518 12844 ft 302 kts 17°
2026-04-25 03:40 3.78685 -76.31885 13562 ft 314 kts 17°
2026-04-25 03:41 3.80853 -76.31209 13874 ft 338 kts 17°
2026-04-25 03:41 3.83183 -76.30481 14119 ft 361 kts 17°
2026-04-25 03:41 3.85633 -76.29716 14663 ft 373 kts 17°
2026-04-25 03:41 3.88125 -76.28935 15374 ft 378 kts 17°
2026-04-25 03:42 3.90659 -76.28141 16085 ft 383 kts 17°
2026-04-25 03:42 3.93221 -76.27339 16785 ft 388 kts 17°
2026-04-25 03:42 3.95778 -76.26537 17445 ft 393 kts 17°
2026-04-25 03:42 3.98405 -76.25710 18103 ft 398 kts 17°
2026-04-25 03:43 4.01060 -76.24879 18754 ft 402 kts 17°
2026-04-25 03:43 4.03772 -76.24002 19403 ft 407 kts 20°
2026-04-25 03:43 4.06276 -76.22740 20004 ft 411 kts 33°
2026-04-25 03:43 4.08547 -76.20915 20627 ft 416 kts 45°
2026-04-25 03:44 4.10347 -76.18686 21209 ft 420 kts 57°
2026-04-25 03:44 4.11658 -76.16061 21778 ft 424 kts 69°
2026-04-25 03:44 4.12712 -76.13296 22338 ft 427 kts 69°
2026-04-25 03:44 4.13780 -76.10513 22853 ft 430 kts 69°
2026-04-25 03:45 4.14859 -76.07713 23053 ft 431 kts 69°
2026-04-25 03:45 4.15959 -76.04874 23102 ft 444 kts 69°
2026-04-25 03:45 4.17089 -76.01963 23102 ft 451 kts 69°
2026-04-25 03:45 4.18227 -75.99032 23111 ft 452 kts 69°
2026-04-25 03:46 4.19366 -75.96090 23112 ft 453 kts 69°
2026-04-25 03:46 4.20501 -75.93152 23111 ft 453 kts 69°
2026-04-25 03:46 4.21637 -75.90205 23119 ft 453 kts 69°
2026-04-25 03:46 4.22783 -75.87264 23118 ft 453 kts 68°
2026-04-25 03:47 4.23940 -75.84323 23121 ft 453 kts 68°
2026-04-25 03:47 4.25100 -75.81387 23128 ft 453 kts 68°
2026-04-25 03:47 4.26258 -75.78453 23126 ft 453 kts 68°
2026-04-25 03:47 4.27413 -75.75522 23126 ft 453 kts 68°
2026-04-25 03:48 4.28566 -75.72591 23127 ft 452 kts 68°
2026-04-25 03:48 4.29720 -75.69661 23124 ft 452 kts 68°
2026-04-25 03:48 4.30877 -75.66722 23120 ft 452 kts 68°
2026-04-25 03:48 4.32030 -75.63794 23118 ft 452 kts 68°
2026-04-25 03:49 4.33183 -75.60862 23115 ft 452 kts 68°
2026-04-25 03:49 4.34320 -75.57970 23111 ft 452 kts 68°
2026-04-25 03:49 4.35474 -75.55039 23111 ft 452 kts 68°
2026-04-25 03:49 4.36630 -75.52108 23110 ft 452 kts 68°
2026-04-25 03:50 4.37858 -75.49215 23100 ft 452 kts 63°
2026-04-25 03:50 4.39378 -75.46446 23099 ft 452 kts 60°
2026-04-25 03:50 4.40909 -75.43694 23094 ft 452 kts 60°
2026-04-25 03:50 4.42442 -75.40938 23089 ft 452 kts 60°
2026-04-25 03:51 4.43974 -75.38184 23080 ft 452 kts 60°
2026-04-25 03:51 4.45504 -75.35432 23073 ft 452 kts 60°
2026-04-25 03:51 4.47015 -75.32715 23069 ft 452 kts 60°
2026-04-25 03:51 4.48551 -75.29954 23064 ft 452 kts 60°
2026-04-25 03:52 4.50084 -75.27195 23058 ft 452 kts 61°
2026-04-25 03:52 4.51616 -75.24439 23056 ft 453 kts 60°
2026-04-25 03:52 4.53148 -75.21684 23058 ft 452 kts 60°
2026-04-25 03:52 4.54684 -75.18923 23059 ft 453 kts 61°
2026-04-25 03:53 4.56216 -75.16165 23060 ft 453 kts 61°
2026-04-25 03:53 4.57730 -75.13435 23061 ft 453 kts 61°
2026-04-25 03:53 4.59266 -75.10665 23063 ft 453 kts 61°
2026-04-25 03:53 4.60798 -75.07905 23066 ft 453 kts 61°
2026-04-25 03:54 4.62334 -75.05140 23068 ft 453 kts 61°
2026-04-25 03:54 4.63855 -75.02402 23063 ft 441 kts 61°
2026-04-25 03:54 4.65307 -74.99788 22931 ft 413 kts 61°
2026-04-25 03:54 4.66653 -74.97364 22551 ft 397 kts 61°
2026-04-25 03:55 4.67981 -74.94972 21900 ft 389 kts 60°
2026-04-25 03:55 4.69287 -74.92620 21160 ft 383 kts 60°
2026-04-25 03:55 4.70578 -74.90295 20404 ft 379 kts 60°
2026-04-25 03:55 4.71853 -74.88004 19863 ft 369 kts 60°
2026-04-25 03:56 4.73070 -74.85813 19540 ft 353 kts 60°
2026-04-25 03:56 4.74242 -74.83691 18960 ft 345 kts 60°
2026-04-25 03:56 4.75626 -74.81734 18400 ft 342 kts 46°
2026-04-25 03:56 4.77136 -74.79919 18246 ft 339 kts 59°
2026-04-25 03:57 4.77806 -74.78514 18172 ft 337 kts 67°
2026-04-25 03:57 4.78604 -74.76302 18046 ft 337 kts 71°
2026-04-25 03:57 4.79297 -74.74066 17918 ft 336 kts 72°
2026-04-25 03:57 4.79991 -74.71824 17801 ft 335 kts 71°
2026-04-25 03:58 4.80721 -74.69607 17672 ft 335 kts 70°
2026-04-25 03:58 4.81495 -74.67410 17545 ft 334 kts 69°
2026-04-25 03:58 4.82300 -74.65230 17424 ft 333 kts 68°
2026-04-25 03:58 4.83122 -74.63056 17226 ft 334 kts 68°
2026-04-25 03:59 4.83955 -74.60872 16754 ft 336 kts 68°
2026-04-25 03:59 4.84785 -74.58697 16468 ft 332 kts 68°
2026-04-25 03:59 4.85603 -74.56554 15998 ft 334 kts 68°
2026-04-25 03:59 4.86435 -74.54377 15591 ft 335 kts 68°
2026-04-25 04:00 4.87261 -74.52202 15189 ft 331 kts 68°
2026-04-25 04:00 4.88071 -74.50056 14587 ft 328 kts 69°
2026-04-25 04:00 4.88876 -74.47923 14057 ft 323 kts 69°
2026-04-25 04:00 4.89669 -74.45835 13626 ft 315 kts 69°
2026-04-25 04:01 4.90222 -74.43715 12998 ft 314 kts 87°
2026-04-25 04:01 4.89961 -74.41601 12835 ft 298 kts 109°
2026-04-25 04:01 4.89024 -74.39842 12841 ft 276 kts 127°
2026-04-25 04:01 4.87912 -74.38358 12855 ft 257 kts 124°
2026-04-25 04:02 4.86998 -74.36888 12884 ft 249 kts 120°
2026-04-25 04:02 4.86122 -74.35401 12896 ft 247 kts 121°
2026-04-25 04:02 4.85170 -74.33961 12903 ft 248 kts 127°
2026-04-25 04:02 4.83879 -74.32814 12655 ft 252 kts 148°
2026-04-25 04:03 4.82408 -74.31782 12066 ft 263 kts 135°
2026-04-25 04:03 4.81271 -74.30376 11826 ft 259 kts 128°
2026-04-25 04:03 4.80148 -74.28929 11306 ft 266 kts 128°
2026-04-25 04:03 4.79021 -74.27451 10927 ft 265 kts 127°
2026-04-25 04:04 4.77923 -74.25999 10573 ft 255 kts 127°
2026-04-25 04:04 4.76872 -74.24610 10241 ft 244 kts 127°
2026-04-25 04:04 4.75879 -74.23298 9923 ft 229 kts 128°
2026-04-25 04:04 4.74946 -74.22065 9652 ft 214 kts 128°
2026-04-25 04:05 4.74071 -74.20909 9355 ft 201 kts 128°
2026-04-25 04:05 4.73264 -74.19843 9123 ft 185 kts 128°
2026-04-25 04:05 4.72529 -74.18871 8873 ft 166 kts 128°
2026-04-25 04:05 4.71860 -74.17988 8661 ft 154 kts 128°
2026-04-25 04:06 4.71227 -74.17150 8463 ft 148 kts 128°
2026-04-25 04:06 4.70620 -74.16341 8376 ft 135 kts 128°
2026-04-25 04:06 4.70226 -74.15820 8372 ft 56 kts 127°
2026-04-25 04:06 4.70009 -74.15535 8371 ft 49 kts 127°
2026-04-25 04:07 4.69814 -74.15277 8373 ft 45 kts 127°
2026-04-25 04:07 4.69730 -74.15074 8373 ft 27 kts 102°
2026-04-25 04:07 4.69716 -74.14947 8373 ft 17 kts 97°
2026-04-25 04:07 4.69733 -74.14835 8373 ft 17 kts 49°
2026-04-25 04:08 4.69831 -74.14760 8372 ft 18 kts 37°
2026-04-25 04:08 4.69840 -74.14698 8371 ft 11 kts 133°
2026-04-25 04:08 4.69790 -74.14633 8373 ft 12 kts 127°
2026-04-25 04:08 4.69752 -74.14582 8373 ft 7 kts 127°
2026-04-25 04:09 4.69724 -74.14544 8373 ft 6 kts 119°
2026-04-25 04:09 4.69744 -74.14520 8373 ft 5 kts 34°
2026-04-25 04:09 4.69763 -74.14505 8373 ft 0 kts 39°